Torna al catalogo

SSA

AttivoMilitareLEO
NORAD 13844·PAYLOAD·🇺🇸 United States

Lanciato Feb 9, 1983 da Vandenberg Space Force Base

Loading…

Prossimi Passaggi (prossime 24 ore)

TLE

AggiornatoSource: Space-Track

Epoca: Sep 14, 2026, 09:12 UTC

1 13844U 83008E   26257.38351767  .00001531  00000-0  24063-3 0  9999
2 13844  63.3114 142.8267 0704009 136.4675 229.4206 13.78088111371141

Traccia SSA in tempo reale con AllMySat

Download on the App Store